When you browse on this site, cookies collect data to enhance your experience and personalize the content and advertising you see.
Visit our Privacy Policy to learn more. By continuing to use the site, you agree to this use of cookies and data.
  • In France
  • List of Countries
  • For 7 days
  • Water Temperature
  • Satellite Maps
  • Weather Map
  • Weather Widgets
  • user-avatar
    Login

    Hourly Weather Kuznecy

    Today, 19 February, Tuesday

    Time Temperature Precipitation Wind Pressure Humidity
    00:00 -4°C° 0 mm 4 mps 750 mmHg 74%
    01:00 -5°C° 0 mm 5 mps 750 mmHg 75%
    02:00 -5°C° 0 mm 5 mps 749 mmHg 76%
    03:00 -4°C° 0 mm 5 mps 749 mmHg 79%
    04:00 -4°C° 0 mm 5 mps 748 mmHg 82%
    05:00 -4°C° 0 mm 5 mps 747 mmHg 85%
    06:00 -4°C° 0 mm 5 mps 747 mmHg 86%
    07:00 -4°C° 0 mm 5 mps 746 mmHg 87%
    08:00 -2°C° 0 mm 5 mps 746 mmHg 89%
    09:00 -2°C° 0 mm 5 mps 746 mmHg 88%
    10:00 -1°C° 0 mm 5 mps 745 mmHg 87%
    11:00 0°C° 0 mm 5 mps 745 mmHg 87%
    12:00 0°C° 0 mm 5 mps 744 mmHg 86%
    13:00 0°C° 0 mm 5 mps 743 mmHg 86%
    14:00 +1°C° 0 mm 5 mps 743 mmHg 86%
    15:00 0°C° 0 mm 5 mps 742 mmHg 86%
    16:00 0°C° 0 mm 5 mps 741 mmHg 87%
    17:00 0°C° 0 mm 5 mps 740 mmHg 88%
    18:00 0°C° 0 mm 5 mps 740 mmHg 89%
    19:00 0°C° 0 mm 5 mps 739 mmHg 89%
    20:00 0°C° 0 mm 5 mps 738 mmHg 90%
    21:00 0°C° 0 mm 5 mps 738 mmHg 89%
    22:00 0°C° 0 mm 5 mps 737 mmHg 89%
    23:00 0°C° 0 mm 5 mps 737 mmHg 89%

    Tomorrow, 20 February, Wednesday

    Time Temperature Precipitation Wind Pressure Humidity
    00:00 0°C° 0.4 mm 4 mps 737 mmHg 90%
    01:00 0°C° 0.4 mm 4 mps 736 mmHg 91%
    02:00 0°C° 0.4 mm 4 mps 736 mmHg 92%
    03:00 0°C° 0.1 mm 4 mps 736 mmHg 92%
    04:00 0°C° 0.1 mm 4 mps 736 mmHg 92%
    05:00 0°C° 0.1 mm 5 mps 735 mmHg 92%
    06:00 0°C° 0.1 mm 5 mps 735 mmHg 92%
    07:00 0°C° 0.1 mm 5 mps 735 mmHg 91%
    08:00 0°C° 0.1 mm 5 mps 735 mmHg 91%
    09:00 +1°C° 0.1 mm 5 mps 735 mmHg 89%
    10:00 +1°C° 0.1 mm 5 mps 735 mmHg 87%
    11:00 +1°C° 0.1 mm 5 mps 735 mmHg 85%
    12:00 +1°C° 0.2 mm 5 mps 734 mmHg 85%
    13:00 +1°C° 0.2 mm 5 mps 734 mmHg 85%
    14:00 +1°C° 0.2 mm 5 mps 734 mmHg 85%
    15:00 0°C° 0.3 mm 5 mps 734 mmHg 83%
    16:00 0°C° 0.3 mm 5 mps 734 mmHg 81%
    17:00 -2°C° 0.3 mm 6 mps 734 mmHg 79%
    18:00 -3°C° 0.2 mm 6 mps 735 mmHg 81%
    19:00 -2°C° 0.2 mm 5 mps 735 mmHg 84%
    20:00 -4°C° 0.2 mm 5 mps 736 mmHg 86%
    21:00 -4°C° 0.3 mm 6 mps 736 mmHg 85%
    22:00 -4°C° 0.3 mm 6 mps 737 mmHg 83%
    23:00 -5°C° 0.3 mm 6 mps 737 mmHg 82%

    Day after tomorrow, 21 February, Thursday

    Time Temperature Precipitation Wind Pressure Humidity
    00:00 -5°C° 0.1 mm 6 mps 738 mmHg 81%
    01:00 -5°C° 0.1 mm 6 mps 739 mmHg 79%
    02:00 -5°C° 0.1 mm 6 mps 740 mmHg 77%
    03:00 -6°C° 0.1 mm 6 mps 740 mmHg 77%
    04:00 -8°C° 0.1 mm 6 mps 741 mmHg 76%
    05:00 -8°C° 0.1 mm 6 mps 741 mmHg 75%
    06:00 -8°C° 0 mm 6 mps 742 mmHg 74%
    07:00 -9°C° 0 mm 6 mps 743 mmHg 73%
    08:00 -9°C° 0 mm 6 mps 743 mmHg 72%
    09:00 -9°C° 0.1 mm 6 mps 744 mmHg 71%
    10:00 -8°C° 0.1 mm 6 mps 745 mmHg 70%
    11:00 -8°C° 0.1 mm 6 mps 745 mmHg 69%
    12:00 -8°C° 0 mm 6 mps 746 mmHg 67%
    13:00 -7°C° 0 mm 5 mps 747 mmHg 66%
    14:00 -7°C° 0 mm 5 mps 747 mmHg 65%
    15:00 -7°C° 0 mm 5 mps 748 mmHg 66%
    16:00 -7°C° 0 mm 5 mps 749 mmHg 67%
    17:00 -8°C° 0 mm 5 mps 750 mmHg 68%
    18:00 -8°C° 0 mm 5 mps 751 mmHg 68%
    19:00 -10°C° 0 mm 5 mps 751 mmHg 68%
    20:00 -9°C° 0 mm 4 mps 752 mmHg 68%
    21:00 -10°C° 0 mm 4 mps 753 mmHg 68%
    22:00 -10°C° 0 mm 4 mps 754 mmHg 68%
    23:00 -10°C° 0 mm 4 mps 754 mmHg 68%

    22 February, Friday

    Time Temperature Precipitation Wind Pressure Humidity
    00:00 -11°C° 0 mm 4 mps 755 mmHg 68%
    01:00 -11°C° 0 mm 4 mps 756 mmHg 69%
    02:00 -11°C° 0 mm 4 mps 757 mmHg 69%
    03:00 -11°C° 0 mm 4 mps 757 mmHg 71%
    04:00 -11°C° 0 mm 4 mps 758 mmHg 73%
    05:00 -10°C° 0 mm 3 mps 758 mmHg 76%
    06:00 -12°C° 0 mm 3 mps 759 mmHg 76%
    07:00 -12°C° 0 mm 3 mps 760 mmHg 77%
    08:00 -12°C° 0 mm 3 mps 761 mmHg 78%
    09:00 -10°C° 0 mm 3 mps 761 mmHg 72%
    10:00 -9°C° 0 mm 3 mps 761 mmHg 66%
    11:00 -9°C° 0 mm 4 mps 761 mmHg 60%
    12:00 -9°C° 0 mm 4 mps 761 mmHg 59%
    13:00 -8°C° 0 mm 4 mps 761 mmHg 59%
    14:00 -7°C° 0 mm 5 mps 761 mmHg 59%
    15:00 -8°C° 0 mm 5 mps 762 mmHg 63%
    16:00 -8°C° 0 mm 4 mps 762 mmHg 66%
    17:00 -8°C° 0 mm 4 mps 762 mmHg 70%
    18:00 -8°C° 0 mm 4 mps 762 mmHg 73%
    19:00 -9°C° 0 mm 4 mps 763 mmHg 75%
    20:00 -9°C° 0 mm 4 mps 763 mmHg 78%
    21:00 -8°C° 0 mm 3 mps 763 mmHg 78%
    22:00 -9°C° 0 mm 3 mps 764 mmHg 79%
    23:00 -8°C° 0 mm 2 mps 764 mmHg 79%

    23 February, Saturday

    Time Temperature Precipitation Wind Pressure Humidity
    00:00 -8°C° 0 mm 2 mps 764 mmHg 81%
    01:00 -8°C° 0 mm 1 mps 764 mmHg 83%
    02:00 -8°C° 0 mm 1 mps 764 mmHg 85%
    03:00 -8°C° 0 mm 1 mps 764 mmHg 85%
    04:00 -8°C° 0 mm 1 mps 764 mmHg 85%
    05:00 -8°C° 0 mm 1 mps 763 mmHg 85%
    06:00 -7°C° 0 mm 1 mps 763 mmHg 84%
    07:00 -7°C° 0 mm 1 mps 763 mmHg 84%
    08:00 -7°C° 0 mm 1 mps 763 mmHg 84%
    09:00 -6°C° 0 mm 1 mps 762 mmHg 83%
    10:00 -7°C° 0 mm 2 mps 762 mmHg 81%
    11:00 -6°C° 0 mm 2 mps 761 mmHg 80%
    12:00 -6°C° 0.4 mm 2 mps 761 mmHg 83%
    13:00 -6°C° 0.4 mm 2 mps 760 mmHg 86%
    14:00 -7°C° 0.4 mm 3 mps 760 mmHg 89%
    15:00 -7°C° 0.3 mm 3 mps 760 mmHg 89%
    16:00 -5°C° 0.3 mm 2 mps 760 mmHg 89%
    17:00 -5°C° 0.3 mm 2 mps 760 mmHg 89%
    18:00 -6°C° 0 mm 2 mps 760 mmHg 90%
    19:00 -6°C° 0 mm 2 mps 760 mmHg 92%
    20:00 -4°C° 0 mm 1 mps 761 mmHg 93%
    21:00 -4°C° 0 mm 1 mps 761 mmHg 94%
    22:00 -4°C° 0 mm 1 mps 761 mmHg 95%
    23:00 -6°C° 0 mm 1 mps 762 mmHg 95%

    24 February, Sunday

    Time Temperature Precipitation Wind Pressure Humidity
    00:00 -6°C° 0 mm 1 mps 762 mmHg 95%
    01:00 -6°C° 0 mm 1 mps 762 mmHg 96%
    02:00 -7°C° 0 mm 1 mps 763 mmHg 96%
    03:00 -7°C° 0 mm 1 mps 763 mmHg 96%
    04:00 -7°C° 0 mm 1 mps 763 mmHg 96%
    05:00 -7°C° 0 mm 1 mps 763 mmHg 96%
    06:00 -7°C° 0 mm 2 mps 763 mmHg 95%
    07:00 -7°C° 0 mm 2 mps 763 mmHg 94%
    08:00 -7°C° 0 mm 2 mps 763 mmHg 94%
    09:00 -6°C° 0 mm 2 mps 763 mmHg 91%
    10:00 -5°C° 0 mm 3 mps 763 mmHg 88%
    11:00 -4°C° 0 mm 3 mps 762 mmHg 85%
    12:00 -4°C° 0 mm 3 mps 762 mmHg 84%
    13:00 -3°C° 0 mm 4 mps 761 mmHg 83%
    14:00 -2°C° 0 mm 4 mps 761 mmHg 82%
    15:00 -2°C° 0 mm 4 mps 760 mmHg 83%
    16:00 -3°C° 0 mm 4 mps 759 mmHg 85%
    17:00 -3°C° 0 mm 4 mps 758 mmHg 87%
    18:00 -2°C° 0.2 mm 4 mps 758 mmHg 88%
    19:00 -2°C° 0.2 mm 5 mps 757 mmHg 89%
    20:00 -2°C° 0.2 mm 5 mps 756 mmHg 90%
    21:00 -2°C° 0.1 mm 5 mps 755 mmHg 91%
    22:00 -1°C° 0.1 mm 4 mps 755 mmHg 92%
    23:00 -1°C° 0.1 mm 4 mps 754 mmHg 93%
    Show more